DW6283 Weather Reports


time (UTC)temp
C
wind
direction
speed
KPH
gust
KPH
rain 1hr
cm
rain 24hr
cm
rain mn
cm
humidity
%
barometer
mb
20260505124545 10 155 0.0 8.0 0.00 0.00 0.00 91 1013.4
20260505123017 10 106 0.0 6.4 0.00 0.00 0.00 91 1013.2
20260505121516 10 144 1.6 9.7 0.00 0.00 0.00 90 1013.3
20260505120114 11 136 1.6 8.0 0.00 0.00 0.00 89 1013.4
20260505114555 11 160 0.0 12.9 0.00 0.00 0.00 88 1013.2
20260505113111 11 164 1.6 16.1 0.00 0.00 0.00 86 1013.2
20260505111534 11 111 0.0 8.0 0.00 0.00 0.00 85 1013.3
20260505101554 12 82 0.0 8.0 0.00 0.00 0.00 82 1013.2
20260505100054 12 86 1.6 9.7 0.00 0.00 0.00 81 1013.2
20260505094535 12 88 0.0 4.8 0.00 0.00 0.00 81 1013.1
20260505093034 12 96 0.0 3.2 0.00 0.00 0.00 80 1013.1
20260505091516 12 86 0.0 9.7 0.00 0.00 0.00 80 1013.2
20260505090016 12 89 0.0 4.8 0.00 0.00 0.00 81 1013.3
20260505084558 12 92 0.0 4.8 0.00 0.00 0.00 81 1013.2
20260505083103 12 109 0.0 4.8 0.00 0.00 0.00 81 1013.2
20260505081546 12 117 0.0 1.6 0.00 0.00 0.00 80 1013.3
20260505080039 12 117 0.0 1.6 0.00 0.00 0.00 80 1013.4
20260505074520 12 117 0.0 3.2 0.00 0.00 0.00 80 1013.5
20260505073020 12 131 0.0 4.8 0.00 0.00 0.00 79 1013.4
20260505071502 12 137 0.0 3.2 0.00 0.00 0.00 79 1013.4
20260505070001 13 89 0.0 1.6 0.00 0.00 0.00 78 1013.4
20260505064548 13 89 0.0 3.2 0.00 0.00 0.00 77 1013.3
20260505063044 13 138 0.0 6.4 0.00 0.00 0.00 77 1013.2
20260505061526 13 101 0.0 4.8 0.00 0.00 0.00 77 1013.4
20260505060033 13 106 0.0 4.8 0.00 0.00 0.00 77 1013.5
20260505054506 13 108 0.0 4.8 0.00 0.00 0.00 77 1013.4
20260505053006 13 109 0.0 4.8 0.00 0.00 0.00 76 1013.5
20260505051553 13 109 0.0 6.4 0.00 0.00 0.00 76 1013.6
20260505041551 13 109 0.0 3.2 0.00 0.00 0.00 73 1013.5
20260505040051 14 109 0.0 0.0 0.00 0.00 0.00 73 1013.4
20260505034611 14 109 0.0 0.0 0.00 0.00 0.00 73 1013.4
20260505033053 14 109 0.0 0.0 0.00 0.00 0.00 73 1013.2
20260505031532 14 109 0.0 1.6 0.00 0.00 0.00 73 1013.2
20260505030032 15 109 0.0 3.2 0.00 0.00 0.00 72 1013.1
20260505024513 15 109 0.0 3.2 0.00 0.00 0.00 72 1013.0
20260505023014 15 109 0.0 1.6 0.00 0.00 0.00 71 1012.9
20260505021556 15 109 0.0 1.6 0.00 0.00 0.00 70 1012.8
20260505020058 15 109 0.0 3.2 0.00 0.00 0.00 70 1013.0
20260505014536 15 109 0.0 1.6 0.00 0.00 0.00 69 1013.0
20260505013035 15 109 0.0 4.8 0.00 0.00 0.00 68 1013.1
20260505011534 15 109 0.0 1.6 0.00 0.00 0.00 67 1013.3
20260505010017 15 109 0.0 3.2 0.00 0.00 0.00 67 1013.3
20260505004607 16 109 0.0 3.2 0.00 0.00 0.00 66 1013.4
20260505003057 16 109 0.0 6.4 0.00 0.00 0.00 64 1013.5
20260505001549 16 108 0.0 6.4 0.00 0.00 0.00 63 1013.6
20260505000055 16 107 0.0 1.6 0.00 0.00 0.00 63 1013.6
20260504234542 16 107 0.0 6.4 0.00 0.00 0.00 61 1013.8
20260504233054 16 219 0.0 3.2 0.00 0.00 0.00 62 1013.8
20260504231538 16 219 0.0 3.2 0.00 0.00 0.00 63 1013.9
20260504230036 16 219 0.0 3.2 0.00 0.00 0.00 63 1014.1
20260504224536 16 219 0.0 3.2 0.00 0.00 0.00 65 1014.1
20260504223032 15 219 0.0 1.6 0.00 0.00 0.00 67 1014.3
20260504221514 15 219 0.0 4.8 0.00 0.00 0.00 69 1014.5
20260504220014 15 219 0.0 4.8 0.00 0.00 0.00 70 1014.7
20260504214606 14 219 0.0 4.8 0.00 0.00 0.00 71 1014.8
20260504213056 14 219 1.6 6.4 0.00 0.00 0.00 70 1014.9
20260504211538 15 219 1.6 4.8 0.00 0.00 0.00 67 1015.0
20260504210038 15 218 0.0 3.2 0.00 0.00 0.00 67 1015.1
20260504204524 15 218 1.6 4.8 0.00 0.00 0.00 67 1015.1
20260504203021 15 218 1.6 6.4 0.00 0.00 0.00 67 1015.0
20260504201501 15 90 0.0 3.2 0.00 0.00 0.00 65 1015.0
20260504200105 15 90 0.0 1.6 0.00 0.00 0.00 65 1014.9
20260504194540 15 90 0.0 1.6 0.00 0.00 0.00 68 1015.0
20260504193039 15 90 0.0 3.2 0.00 0.00 0.00 68 1015.1
20260504191525 15 90 0.0 0.0 0.00 0.00 0.00 69 1015.1
20260504190026 14 90 0.0 1.6 0.00 0.00 0.00 70 1015.2
20260504184525 14 90 0.0 1.6 0.00 0.00 0.00 70 1015.2
20260504183023 14 90 0.0 0.0 0.00 0.00 0.00 68 1015.3
20260504181521 14 90 0.0 1.6 0.00 0.00 0.00 68 1015.1
20260504180020 14 90 0.0 1.6 0.00 0.00 0.00 68 1015.1
20260504174517 14 90 0.0 1.6 0.00 0.00 0.00 68 1014.8
20260504173020 14 90 0.0 4.8 0.00 0.00 0.00 69 1014.7
20260504171558 14 90 0.0 1.6 0.00 0.00 0.00 69 1014.6